Regional Weather Roundup
Issued by NWS Grand Forks, ND

Home | Current Version | Previous Version | Text Only | Print | Product List | Glossary On
Versions: 1 2 3 4 5 6 7 8 9 10 11 12 13 14 15 16 17 18 19 20 21 22 23 24 25 26 27 28 29 30 31 32 33 34 35 36 37 38 39 40 41 42 43 44 45 46 47 48 49 50
000
ASUS43 KFGF 281510
RWRFGF
PRAIRIE TO PINES  WEATHER ROUNDUP
NATIONAL WEATHER SERVICE EASTERN NORTH DAKOTA/GRAND FORKS ND
1000 AM CDT FRI APR 28 2017

 **SATELLITE DATA USED TO AUGMENT SKY COVER AT AUTOMATED STATIONS**
 *****  WEATHER ACROSS EASTERN NORTH DAKOTA  *****

CITY           SKY/WX    TMP DP  RH WIND       PRES   REMARKS
GRAND FORKS    FAIR      42  27  55 N14       29.96R
GRAND FRKS AFB FAIR      40  24  54 N13       29.96R
DEVILS LAKE    FAIR      41  18  39 N15       29.99R
FARGO          FAIR      39  29  67 N10       29.96R
WAHPETON ARPT  FAIR      37  28  70 N10G18    29.98R
$$

 ***** WEATHER ACROSS CENTRAL AND WESTERN NORTH DAKOTA  *****

CITY           SKY/WX    TMP DP  RH WIND       PRES   REMARKS
BISMARCK       FAIR      43  25  49 N6        30.02R
MINOT          FAIR      44  16  32 VRB3      30.02R
JAMESTOWN      FAIR      40  24  53 N8        29.98R
MINOT AFB      FAIR      42  20  42 N5        30.02R
GARRISON         N/A     42  25  50 CALM      30.02R
WILLISTON      FAIR      44  28  53 SE5       30.03R
DICKINSON      FAIR      40  25  55 SE7       29.97R
HETTINGER      FAIR      39  28  64 E8        29.98R
$$

 *****  OTHER AIRPORT OBSERVATIONS IN OUR AREA  *****

CITY           SKY/WX    TMP DP  RH WIND       PRES   REMARKS
WALHALLA       NOT AVBL
GRAFTON AIRPOR FAIR      39  25  56 NW15      29.99R
VALLEY CITY AR FAIR      39  23  52 N10       29.99R
CANDO          NOT AVBL
CAVALIER APRT  FAIR      39  18  41 N14G22    29.97R
GWINNER        SUNNY     39  30  70 MISG      29.98R
SHEYENNE NWR     N/A     40  26  57 NE9       29.95S
ROLLA          FAIR      41  12  30 N13       29.99R
 ***** THE ABOVE OBSERVATIONS ARE NON NWS ARE NOT QUALITY
       CONTROLLED AND MAY MIS-REPORT RAIN FOR SNOW...
$$

  *****  WEATHER ACROSS NORTHERN MINNESOTA  *****

CITY           SKY/WX    TMP DP  RH WIND       PRES   REMARKS
FLAG ISLAND    FAIR      34  18  51 NW18      29.87R WCI  23
WARROAD        FAIR      36  21  55 NW12      29.90R
ROSEAU         FAIR      36  27  69 NW9       29.90R
HALLOCK        FAIR      39  25  56 NW13      29.95R
THF RVR FALLS  FAIR      36  25  64 NW14      29.94R
BAUDETTE       FAIR      35  18  49 NW18G25   29.85R WCI  24
WASKISH        FAIR      37  25  60 NW14G20   29.87R
CROOKSTON      FAIR      37  30  75 NW13      29.96R
STEPHEN NDAWN    N/A     37  27  65 NW14        N/A
GREENBUSH NDAW   N/A     34  19  55 NW12        N/A
$$
  *****  WEATHER ACROSS CENTRAL AND WEST MINNESOTA  *****

CITY           SKY/WX    TMP DP  RH WIND       PRES   REMARKS
FOSSTON        FAIR      37  25  60 NW9       29.93R
BEMIDJI        FAIR      35  22  60 NW16      29.88S WCI  25
PARK RAPIDS    FAIR      36  23  59 N9        29.88R
ELBOW LAKE     PTSUNNY   35  29  78 NW13      29.97R
WADENA         PTSUNNY   34  27  75 NW8       29.92R
DETROIT LAKES  FAIR      34  30  86 N7        29.94R
MOORHEAD       FAIR      37  28  70 N9        29.97R
FERGUS FALLS   FAIR      37  28  70 N12       29.97R
MORRIS MN      FAIR      39  30  70 N15       29.95S
STAPLES        FAIR      34  27  75 N9        29.92R
$$
  *****  WEATHER ELSEWHERE ACROSS MINNESOTA  *****

CITY           SKY/WX    TMP DP  RH WIND       PRES   REMARKS
DULUTH         PTSUNNY   33  24  69 NW16G26   29.81R WCI  23
INTRNTL FALLS  PTSUNNY   34  22  61 NW20G29   29.81R WCI  23
ELY            CLOUDY    30  21  69 W15G24    29.76R WCI  19
CLOQUET        PTSUNNY   36  21  55 W12       29.84R
WHEATON        FAIR      39  28  65 NW8       29.99R
BRAINERD       PTSUNNY   35  25  66 NW12      29.91R
HIBBING        CLOUDY    31  24  75 NW18G28   29.81S WCI  19
ALEXANDRIA     FAIR      37  27  67 N10       29.95R
SAINT CLOUD    FAIR      37  27  67 NW13      29.93R
MINNEAPOLIS    FAIR      40  25  55 N6G17     29.92R
$$

  *****  WEATHER ACROSS SOUTH DAKOTA  *****

CITY           SKY/WX    TMP DP  RH WIND       PRES   REMARKS
SIOUX FALLS    PTSUNNY   40  32  73 NE9       29.91F
BROOKINGS      FAIR      39  25  57 NE17      29.92R
WATERTOWN      FAIR      41  25  53 N18       29.92R
HURON          FAIR      43  23  45 NE16      29.94S
SISSETON         N/A     42  30  62 N12       29.96R
ABERDEEN       FAIR      42  28  57 N14       29.98R
MITCHELL       FAIR      41  29  62 NE14      29.94R
PIERRE         FAIR      40  26  57 E21       29.93R
MOBRIDGE       FAIR      45  21  38 NE13      29.95R
RAPID CITY     CLOUDY    39  30  70 NE10      29.89R
$$

  *****  SOME WEATHER IN NEARBY STATES *****

CITY           SKY/WX    TMP DP  RH WIND       PRES   REMARKS
GLASGOW MT     CLOUDY    44  20  38 SE7       29.99R
GREAT FALLS MT CLOUDY    39  32  76 W6        29.99R
CHEYENNE WY    PTSUNNY   38  23  55 NW7       29.67R
SCOTTSBLUFF NE LGT SNOW  34  32  92 E8        29.73R VSB 3/4
OMAHA NE       LGT RAIN  39  33  79 NE17G23   29.80F
DES MOINES IA  LGT RAIN  38  32  79 NE10      29.87F
DAVENPORT IA   CLOUDY    43  35  73 NE13      29.90F
CHICAGO IL     PTSUNNY   51  37  58 NE5       29.93F
EAU CLAIRE WI  FAIR      40  23  50 NW7       29.89R
LA CROSSE WI   FAIR      45  30  55 N6        29.91S
$$

  *****  SOME NATIONAL WEATHER *****

CITY           SKY/WX    TMP DP  RH WIND       PRES   REMARKS
LA GUARDIA NY  FAIR      72  60  66 VRB6      29.98S HAZE
RALEIGH NC     MOSUNNY   79  68  69 SW6       30.07S
ATLANTA GA     PTSUNNY   76  68  76 S14       30.05R
NEW ORLEANS LA PTSUNNY   81  74  79 S13G23    29.87R
OKLAHOMA CITY  PTSUNNY   65  58  78 S13       29.61R
ALBUQUERQUE NM CLOUDY    46  28  49 N9        29.75S
SALT LAKE CITY PTSUNNY   40  29  64 W7        29.90R
LOS ANGELES CA FAIR      70  34  26 N15G24    29.79R
BOISE ID       FAIR      41  32  70 NW16      30.06R
SEATTLE WA     PTSUNNY   45  41  86 S3        30.33R
$$

*** WEATHER ACROSS MANITOBA...SASKATCHEWAN AND ONTARIO ***
                ***ONTARIO***

CITY           SKY/WX    TMP DP  RH WIND       PRES   REMARKS
GERALDTON      FLURRIES  25  19  80 W15G23    29.57S WCI  12
THUNDER BAY    CLOUDY    32  23  69 W14G23    29.69S WCI  22
SIOUX LOOKOUT  LGT SNOW  25  19  80 N12G26    29.72R DRFTSNOWWCI  14
TORONTO        PTSUNNY   57  41  54 SW13      29.98S
BIG TROUT LK   FLURRIES  28   9  43 N16G31    29.65R WCI  17
PICKLE LAKE    LGT SNOW  21  18  86 NW9G20    29.61R VSB 1   WCI  11
DRYDEN         LGT SNOW  27  25  93 NW12G24   29.76R WCI  16
KENORA         CLOUDY    32  19  59 N9G20     29.84R WCI  24
$$
                *** MANITOBA***

CITY           SKY/WX    TMP DP  RH WIND       PRES   REMARKS
BRANDON        SUNNY     43  14  31 NW9       30.02R
DAUPHIN        SUNNY     43   9  24 NW7       30.04R
ISLAND LAKE    PTSUNNY   28   5  37 NW13      29.94R WCI  18
PILOT MOUND      N/A     41   7  24 N13         N/A
THE PAS        MOSUNNY   34  16  47 N5        30.06R
THOMPSON       CLOUDY    37   9  30 N7        30.03R
WINNIPEG       MOSUNNY   39  10  30 N16G26    29.97R
LYNN LAKE      SUNNY     41  10  28 N8        30.05R
CHURCHILL      PTSUNNY   19  14  79 W10       30.03R WCI   8
GILLAM         MOSUNNY   28   3  34 W7        29.99S WCI  21
$$
                ***SASKATCHEWAN***

CITY           SKY/WX    TMP DP  RH WIND       PRES   REMARKS
ESTEVAN        MOSUNNY   41  27  56 SW5       30.03R
KINDERSLEY     PTSUNNY   34  32  93 W12G18    29.98R
LLOYDMINSTER   PTSUNNY   36  32  87 N3        30.03R
PRINCE ALBERT  PTSUNNY   43  19  39 NE7       30.03R
REGINA         MOSUNNY   45  23  42 SE9       30.01R
YORKTON        SUNNY     41  19  42 S3        30.04R
N. BATTLEFORD  CLOUDY    41  23  48 E10       30.01R
LA RONGE       MOSUNNY   43  12  28 NE3       30.07R
SASKATOON      PTSUNNY   43  23  45 E2        30.00S
SWIFT CURRENT  MOSUNNY   39  37  93 W5        29.97R
$$
NOTE: THESE ARE AUTOMATED STATIONS WITH LIMITED QUALITY CONTROL
      "FAIR" INDICATES FEW OR NO CLOUDS BELOW 12,000 FEET WITH NO
      SIGNIFICANT WEATHER AND/OR OBSTRUCTIONS TO VISIBILITY.
      SKY/WX - SKY CONDITION AND SIGNIFICANT WEATHER.
      TMP - AIR TEMPERATURE.    DP   - DEWPOINT TEMPERATURE.
      RH  - RELATIVE HUMIDITY.  PRES - PRESSURE.
      HX  - HEAT INDEX.         WCI  - WIND CHILL INDEX.
$




USA.gov is the U.S. government's official web portal to all federal, state and local government web resources and services.